Regional Weather Roundup
Issued by NWS

Home | Current Version | Previous Version | Graphics & Text | Print | Product List | Glossary On
Versions: 1 2 3 4 5 6 7 8 9 10 11 12 13 14 15 16 17 18 19 20 21 22 23 24 25 26 27 28 29 30 31 32 33 34 35 36 37 38 39 40 41 42 43 44 45 46 47 48 49 50
000
ASUS43 KLSX 251159
RWRMO

WEATHER SUMMARY FOR MISSOURI
NATIONAL WEATHER SERVICE SPRINGFIELD MO
700 AM CDT SAT OCT 25 2014

NOTE: "FAIR" INDICATES FEW OR NO CLOUDS BELOW 12,000 FEET WITH NO
       SIGNIFICANT WEATHER AND/OR OBSTRUCTIONS TO VISIBILITY.
       CURRENT SKY AND/OR WEATHER CONDITIONS ARE NOT AVAILABLE FOR
       CHILLICOTHE AND FARMINGTON.

MOZ001>031-035>038-043-044-053-054-251300-
...NORTHERN AND WESTERN MISSOURI...

CITY           SKY/WX    TMP DP  RH WIND       PRES   REMARKS
KANSAS CTY INT FOG       58  58 100 CALM      30.05R VSB 1/4
6HR MIN TEMP:  54; 6HR MAX TEMP:  61;

KANSAS C DTWN  FOG       55  53  93 CALM      30.04S VSB 1/4
6HR MIN TEMP:  54; 6HR MAX TEMP:  65;

LEE`S SUMMIT   FOG       57  56  96 CALM      30.05R VSB 1/4
6HR MIN TEMP:  56; 6HR MAX TEMP:  63;

ST JOSEPH      FOG       50  50 100 CALM      30.05S VSB 1/4
6HR MIN TEMP:  48; 6HR MAX TEMP:  55;

KIRKSVILLE     FOG       54  54 100 NW5       30.03R VSB 1/4
6HR MIN TEMP:  50; 6HR MAX TEMP:  58;


$$
MOZ066>068-077>081-088>096-101>105-251300-
...SOUTHWEST MISSOURI...

CITY           SKY/WX    TMP DP  RH WIND       PRES   REMARKS
SPRINGFIELD    CLEAR     64  59  83 W10       30.06R
6HR MIN TEMP:  56; 6HR MAX TEMP:  65;

JOPLIN         CLEAR     62  59  90 SW8       30.07S
6HR MIN TEMP:  62; 6HR MAX TEMP:  66;


$$
MOZ032>034-039>042-045>050-055>058-069>072-251300-
...CENTRAL MISSOURI...

CITY           SKY/WX    TMP DP  RH WIND       PRES   REMARKS
COLUMBIA       CLEAR     59  59 100 W3        30.03R FOG
6HR MIN TEMP:  57; 6HR MAX TEMP:  63;

JEFFERSON CITY FOG       55  55 100 CALM      30.03R VSB 1/4
6HR MIN TEMP:  53; 6HR MAX TEMP:  63;

ROLLA          CLEAR     56  55  97 SW6       30.03R FOG
6HR MIN TEMP:  56; 6HR MAX TEMP:  60;

SEDALIA        CLEAR     60  58  92 SW3       30.05R FOG
6HR MIN TEMP:  60; 6HR MAX TEMP:  65;

WHITEMAN AFB   CLEAR     55  55 100 SW3       30.03R FOG
OSAGE BEACH    CLEAR     57  54  88 W3        30.04R

$$
MOZ051-052-059>065-251300-
...EAST CENTRAL MISSOURI...

CITY           SKY/WX    TMP DP  RH WIND       PRES   REMARKS
ST LOUIS INTL  PTCLDY    58  55  90 SW5       30.01S FOG
6HR MIN TEMP:  58; 6HR MAX TEMP:  64;

SPIRIT OF STL  MOCLDY    54  53  97 CALM      30.01S FOG
6HR MIN TEMP:  54; 6HR MAX TEMP:  65;

ST CHARLES     FOG       52  51  97 NW3       30.00S VSB 1
6HR MIN TEMP:  51; 6HR MAX TEMP:  55;


$$
MOZ072>076-082>087-097>100-106>115-251300-
...SOUTH CENTRAL AND SOUTHEAST MISSOURI...

CITY           SKY/WX    TMP DP  RH WIND       PRES   REMARKS
CAPE GIRARDEAU PTCLDY    54  52  93 CALM      30.04S
6HR MIN TEMP:  51; 6HR MAX TEMP:  55;

FARMINGTON     CLEAR     55  55 100 CALM      30.05R
6HR MIN TEMP:  54; 6HR MAX TEMP:  61;

POPLAR BLUFF   PTCLDY    55  53  93 SW3       30.04S FOG
6HR MIN TEMP:  52; 6HR MAX TEMP:  56;

WEST PLAINS    CLEAR     58  56  93 SW8       30.08S
6HR MIN TEMP:  58; 6HR MAX TEMP:  60;


$$



USA.gov is the U.S. government's official web portal to all federal, state and local government web resources and services.